Regional Weather Roundup
Issued by NWS Sioux Falls, SD

Home | Current Version | Previous Version | Text Only | Print | Product List | Glossary On
Versions: 1 2 3 4 5 6 7 8 9 10 11 12 13 14 15 16 17 18 19 20 21 22 23 24 25 26 27 28 29 30 31 32 33 34 35 36 37 38 39 40 41 42 43 44 45 46 47 48 49 50
000
ASUS43 KFSD 291010
RWRFSD

WEATHER ROUNDUP FOR SE SOUTH DAKOTA/SW MINNESOTA/NW IOWA
NATIONAL WEATHER SERVICE SIOUX FALLS SD
500 AM CDT FRI MAY 29 2015

NOTE: "FAIR" INDICATES FEW OR NO CLOUDS BELOW 12,000 FEET WITH NO
SIGNIFICANT WEATHER AND OR OBSTRUCTIONS TO VISIBILITY.


SDZ038>040-050-052>070-291100-
SOUTHEAST SOUTH DAKOTA

CITY           SKY/WX    TMP DP  RH WIND       PRES   REMARKS
BROOKINGS      CLOUDY    63  57  82 E6        29.83F
CHAMBERLAIN    CLOUDY    58  57  95 W6        29.85F
HURON            N/A    N/A N/A N/A MISG      29.81F
MADISON        CLOUDY    63  63 100 E8        29.84R FOG
MITCHELL       LGT RAIN  63  60  90 SW12      29.83R
SIOUX FALLS    CLOUDY    65  63  93 S13       29.84R
WINNER         CLOUDY    61  56  83 W10       29.88F
YANKTON        CLOUDY    64  61  88 W7        29.82F
$$

MNZ071-072-080-081-089-090-097-098-291100-
SOUTHWEST MINNESOTA

CITY           SKY/WX    TMP DP  RH WIND       PRES   REMARKS
FAIRMONT       CLOUDY    64  59  82 SW10      29.87S
JACKSON        CLOUDY    64  63  94 S7        29.88S
LUVERNE        CLOUDY    64  63  94 SE6       29.86S FOG
MARSHALL       CLOUDY    63  57  82 SW5       29.84S
MONTEVIDEO     CLOUDY    63  61  94 S7        29.82F
PIPESTONE      CLOUDY    64  63  94 CALM      29.85S
REDWOOD FALLS  MOCLDY    63  61  93 SE6       29.83F
TRACY          CLOUDY    65  63  93 CALM      29.87S
WINDOM         MOCLDY    63  57  82 SW13      29.85S THUNDER
WORTHINGTON    MOCLDY    63  59  88 SW14      29.89R THUNDER
$$

IAZ001>003-012>014-020>022-031-032-NEZ013-014-SDZ071-291100-
NORTHWEST IOWA

CITY           SKY/WX    TMP DP  RH WIND       PRES   REMARKS
CHEROKEE       MOCLDY    64  64  97 S8        29.86F
DENISON        MOCLDY    64  64 100 S13       29.85F
ESTHERVILLE    CLOUDY    65  62  90 S9        29.87S
LE MARS          N/A     66  64  94 SW7       29.85F
ORANGE CITY    CLOUDY    64  63  94 W6        29.87R
SHELDON        LGT RAIN  66  64  94 SW8G16    29.86R
SIOUX CITY     LGT RAIN  66  63  90 E7        29.84F
SPENCER        MOCLDY    65  63  93 S7        29.87S
STORM LAKE     MOCLDY    63  63 100 S9        29.88F
$$

ABBREVIATIONS USED IN REMARKS
   TC - TEMPERATURE IN CELSIUS
  WCI - WIND CHILL INDEX
   HX - HEAT INDEX
  VSB - VISIBILITY




USA.gov is the U.S. government's official web portal to all federal, state and local government web resources and services.